Regional Weather Roundup
Issued by NWS San Diego, CA

Home | Current Version | Previous Version | Text Only | Print | Product List | Glossary On
Versions: 1 2 3 4 5 6 7 8 9 10 11 12 13 14 15 16 17 18 19 20 21 22 23 24 25 26 27 28 29 30 31 32 33 34 35 36 37 38 39 40 41 42 43 44 45 46 47 48 49 50
000
ASUS46 KSGX 210404
RWRSGX

SAN DIEGO HOURLY WEATHER ROUNDUP
NATIONAL WEATHER SERVICE SAN DIEGO CA
900 PM PDT SUN AUG 20 2017

NOTE: "FAIR" INDICATES FEW OR NO CLOUDS BELOW 12,000 FEET WITH NO
SIGNIFICANT WEATHER AND/OR OBSTRUCTIONS TO VISIBILITY.

CAZ042-043-060-061-PZZ750-775-210500-

GREATER SAN DIEGO AREA

CITY           SKY/WX    TMP DP  RH WIND       PRES   REMARKS
SAN DIEGO AP   CLOUDY    69  61  75 SW8       29.95R
NATIONAL CITY    N/A     69  62  78 CALM      29.96R
IMPERIAL BEACH CLOUDY    68  60  75 W6        29.95R
BROWN FIELD    CLEAR     64  60  87 W5        29.95R
MIRAMAR MCAS   MOCLDY    72  59  63 W3        29.94R
MONTGOMERY FLD CLOUDY    71  60  68 W5        29.95R
GILLESPIE FLD  PTCLDY    68  59  73 W6        29.94R

$$

NORTH SAN DIEGO COUNTY

CITY           SKY/WX    TMP DP  RH WIND       PRES   REMARKS
CAMP PENDLETON CLEAR     56  32  40 CALM      29.94R
OCEANSIDE AP   PTCLDY    66  60  81 CALM      29.93R
OCEANSIDE HBR    N/A     67  61  81 W3        29.96R
VISTA            N/A     66  60  81 CALM      29.91R
CARLSBAD       CLOUDY    68  60  75 SW3       29.93R
DEL MAR          N/A     68  62  80 CALM      29.95R
LA JOLLA SCRIP   N/A     68  62  82 SW1       29.93R
FALLBROOK        N/A     64  63  96 CALM      29.95R
ESCONDIDO        N/A     67  60  77 W3        29.95R
POWAY            N/A     66  60  79 CALM      29.94R

$$

EAST SAN DIEGO COUNTY

CITY           SKY/WX    TMP DP  RH WIND       PRES   REMARKS
RAMONA         CLEAR     62  59  90 W6        29.96R
SANTEE LAKES     N/A     67  60  80 CALM      29.92R
LA MESA          N/A     65  60  83 CALM      29.87R
JAMUL            N/A     63  58  83 CALM      29.93R
DESCANSO N       N/A     66  51  59 NE3       29.81R
CAMPO            N/A     64  57  78 SW3       29.96R

$$

ORANGE COUNTY AND THE LOS ANGELES BASIN

CITY           SKY/WX    TMP DP  RH WIND       PRES   REMARKS
JOHN WAYNE AP  PTCLDY    68  61  78 S7        29.93R
LAKE FOREST FR   N/A     64  57  77 CALM      29.82R
HUNTINGTON BCH   N/A     68  63  85 W2        29.95R
LOS ALAMITOS   MOCLDY    67  60  79 CALM      29.93R
FULLERTON      CLOUDY    69  62  78 S7        29.92R
LONG BEACH     CLOUDY    69  61  75 NW7       29.93R
L.A. AP        PTCLDY    67  61  81 W10       29.93R
L.A. DOWNTOWN  PTCLDY    69  61  75 W3        29.93R

$$

THE INLAND EMPIRE

CITY           SKY/WX    TMP DP  RH WIND       PRES   REMARKS
CORONA         CLEAR     68  60  75 W9        29.93R
CHINO          CLEAR     69  60  73 W9        29.95R
ONTARIO        CLEAR     69  60  73 W9        29.94R
SAN BERNARDINO CLEAR     73  59  60 SW7       29.94R
RIVERSIDE AP   CLEAR     69  61  75 W8        29.93R
MORENO VALLEY    N/A     72  64  75 NW3       28.04R
MARCH ARB      CLEAR     68  61  77 NW5       29.95R
HORSETHIEF CYN   N/A     70  57  62 N6        29.91R
PERRIS           N/A     68  60  76 S5        29.94R
HEMET EAST       N/A     70  55  59 W1        29.95R
FRENCH VALLEY  FAIR      64  57  77 S6        29.96R
TEMECULA         N/A     66  60  82 S2        29.98R

$$

SAN BERNARDINO AND RIVERSIDE COUNTY MOUNTAINS

CITY           SKY/WX    TMP DP  RH WIND       PRES   REMARKS
BIG BEAR AP    CLEAR     59  43  55 CALM      30.21R
PINE COVE        N/A     61  45  54 CALM      29.83R

$$

SOUTHERN DESERT INCLUDING THE COACHELLA VALLEY

CITY           SKY/WX    TMP DP  RH WIND       PRES   REMARKS
PALM SPRINGS   CLEAR     92  53  26 NW17      29.78R
THOUSAND PALMS   N/A     89  56  32 NW10      29.73R
PALM DESERT      N/A     91  56  30 CALM      31.93
THERMAL        CLEAR     94  53  25 NW7       29.71R
BLYTHE         MOCLDY   100  41  13 S8        29.75R HX  95
IMPERIAL AP    CLEAR     95  51  22 NW7       29.72R
EL CENTRO NAS  CLEAR     92  47  21 NW3       29.75R
MEXICALI       CLEAR     90  54  29 SE8       29.74R

$$

UPPER DESERT

CITY           SKY/WX    TMP DP  RH WIND       PRES   REMARKS
VICTORVILLE AP CLEAR     79  46  31 S16       29.93R
HESPERIA         N/A     75  55  49 W15       29.90R
PALMDALE       CLEAR     79  49  34 SW10      29.94R
LANCASTER      CLEAR     76  51  41 W15       29.94R
EDWARDS AFB    CLEAR     81  46  28 SW15      29.89R
DAGGETT        CLEAR     87  46  24 NW10      29.85R
29 PALMS N     CLEAR     87  42  20 SW10      29.94R
NEEDLES        CLOUDY   102  38  11 SW7       29.78R HX  96

$$

REGIONAL REPORTS

CITY           SKY/WX    TMP DP  RH WIND       PRES   REMARKS
SANTA BARBARA  CLEAR     63  59  87 W3        29.92R
SANDBERG       CLEAR     67  50  54 S8        30.08R
LAS VEGAS NV   MOCLDY    96  44  16 S10       29.86R
PHOENIX AZ     CLOUDY    98  47  17 N8        29.82R
TIJUANA        PTCLDY    64  61  88 NW6       29.97R
ENSENADA NW      N/A     66  32  28 CALM      29.92R

$$

OFFSHORE ISLANDS

CITY           SKY/WX    TMP DP  RH WIND       PRES   REMARKS
CATALINA ARPT  CLOUDY    60  58  92 W7        29.96R
SAN NICOLAS IS CLOUDY   N/A N/A N/A CALM      29.93R

$$

MARINE AND OFFSHORE BUOY REPORTS

STATION/POSITION SKY/WX   TEMP    WIND        PRES    VSBY  SWELL
                          AIR SEA DIR/SP/G                  HT/PER/DIR
                          (F)     (DEG/KT/KT) (MB)    (MI)  (FT/S/D)
TANNER BANKS               65 67  230/  4/  4 1012.3          5/200/13
S CLEMENTE BASIN           67 70  260/  6/  8 1013.0          3/250/11
SAN NICOLAS IS.               65                N/A           3/190/13
SO. S. ROSA ISLA           63 64  180/  4/  4 1012.7R         5/290/11
W. S. BARBARA CH           63 63  250/  2/  6 1012.6R         5/310/10
M. S. BARBARA CH           64 65  280/  6/  6 1013.7R         2/220/10
S. MONICA BASIN               70  260/  4/  6 1012.8R
S PEDRO CHANNEL               69                N/A           2/170/14
CMP PENDLETON NS              70                N/A           2/220/13
OCEANSIDE OFFSHR              71                N/A           2/210/14
TORREY PINES OTR              72                N/A           2/200/13
SAN DIEGO BAY                 74              1014.0R
POINT LOMA SOUTH              69                N/A           2/190/13

$$





USA.gov is the U.S. government's official web portal to all federal, state and local government web resources and services.